Simultaneous Nadir Overpasses (SNOs) Predictions

Prediction of SNOs between METOP-B and TERRA Satellite Orbit:

Table of predicted SNOs for the next 14.0 days since TLE Epoch: 12/7/2013
Index Date (METOP-B) Time (METOP-B) Lat,Lon (METOP-B) SZA (METOP-B ) Date (TERRA) Time (TERRA) Lat,Lon (TERRA) SZA (TERRA ) Distance(km) Time Diff (sec)
1 12/08/2013 06:52:35 81.28, 123.54 106.81 12/08/2013 06:53:09 81.28, 123.52 106.82 0.40 34
2 12/08/2013 07:43:15 -81.29, -68.53 73.12 12/08/2013 07:42:35 -81.29, -68.59 73.14 1.12 40
3 12/11/2013 02:26:59 81.28,-169.83 107.06 12/11/2013 02:27:23 81.29,-169.88 107.07 0.91 24
4 12/11/2013 03:17:40 -81.29, -2.26 72.91 12/11/2013 03:16:50 -81.28, -2.35 72.95 1.72 50
5 12/13/2013 22:01:24 81.28,-103.65 107.20 12/13/2013 22:01:37 81.28,-103.49 107.23 2.64 13
6 12/13/2013 22:52:05 -81.29, 63.96 72.77 12/13/2013 22:51:04 -81.28, 64.06 72.79 1.73 61
7 12/16/2013 16:45:43 -80.82, 142.16 74.35 12/16/2013 16:46:47 -80.69, 146.84 74.00 84.98 64
8 12/16/2013 17:35:47 81.28, -37.13 107.32 12/16/2013 17:35:49 81.29, -36.95 107.34 3.16 2
9 12/16/2013 18:26:28 -81.29, 130.50 72.65 12/16/2013 18:25:16 -81.29, 130.62 72.67 1.98 72
10 12/19/2013 12:19:32 -81.28,-138.30 72.68 12/19/2013 12:20:36 -81.28,-138.31 72.65 0.29 64




NCC Satellite Simultaneous Nadir Overpasses (SNOs) Prediction Service
